Year,Month,Day,Hour,Minute,Value (Times are PST for temperature in C)
2010,08,17,00,00,18.20
2010,08,17,00,01,18.20
2010,08,17,00,02,18.20
2010,08,17,00,03,18.10
2010,08,17,00,04,18.10
2010,08,17,00,05,18.10
2010,08,17,00,06,18.10
2010,08,17,00,07,18.10
2010,08,17,00,08,18.10
2010,08,17,00,09,18.00
2010,08,17,00,10,17.90
2010,08,17,00,11,17.90
2010,08,17,00,12,17.90
2010,08,17,00,13,17.90
2010,08,17,00,14,17.90
2010,08,17,00,15,17.90
2010,08,17,00,16,17.80
2010,08,17,00,17,17.80
2010,08,17,00,18,17.80
2010,08,17,00,19,17.70
2010,08,17,00,20,17.70
2010,08,17,00,21,17.70
2010,08,17,00,22,17.70
2010,08,17,00,23,17.70
2010,08,17,00,24,17.60
2010,08,17,00,25,17.60
2010,08,17,00,26,17.60
2010,08,17,00,27,17.60
2010,08,17,00,28,17.60
2010,08,17,00,29,17.60
2010,08,17,00,30,17.60
2010,08,17,00,31,17.60
2010,08,17,00,32,17.60
2010,08,17,00,33,17.60
2010,08,17,00,34,17.60
2010,08,17,00,35,17.60
2010,08,17,00,36,17.50
2010,08,17,00,37,17.50
2010,08,17,00,38,17.50
2010,08,17,00,39,17.50
2010,08,17,00,40,17.50
2010,08,17,00,41,17.50
2010,08,17,00,42,17.50
2010,08,17,00,43,17.50
2010,08,17,00,44,17.50
2010,08,17,00,45,17.50
2010,08,17,00,46,17.40
2010,08,17,00,47,17.40
2010,08,17,00,48,17.40
2010,08,17,00,49,17.40
2010,08,17,00,50,17.40
2010,08,17,00,51,17.40
2010,08,17,00,52,17.40
2010,08,17,00,53,17.30
2010,08,17,00,54,17.30
2010,08,17,00,55,17.30
2010,08,17,00,56,17.30
2010,08,17,00,57,17.30
2010,08,17,00,58,17.30
2010,08,17,00,59,17.30
2010,08,17,01,00,17.30
2010,08,17,01,01,17.30
2010,08,17,01,02,17.30
2010,08,17,01,03,17.30
2010,08,17,01,04,17.20
2010,08,17,01,05,17.20
2010,08,17,01,06,17.20
2010,08,17,01,07,17.20
2010,08,17,01,08,17.10
2010,08,17,01,09,17.10
2010,08,17,01,10,17.10
2010,08,17,01,11,17.10
2010,08,17,01,12,17.00
2010,08,17,01,13,17.00
2010,08,17,01,14,17.00
2010,08,17,01,15,17.00
2010,08,17,01,16,17.00
2010,08,17,01,17,17.00
2010,08,17,01,18,17.00
2010,08,17,01,19,17.00
2010,08,17,01,20,17.00
2010,08,17,01,21,17.00
2010,08,17,01,22,17.00
2010,08,17,01,23,17.00
2010,08,17,01,24,17.00
2010,08,17,01,25,17.00
2010,08,17,01,26,17.00
2010,08,17,01,27,16.90
2010,08,17,01,28,16.90
2010,08,17,01,29,16.90
2010,08,17,01,30,16.90
2010,08,17,01,31,16.90
2010,08,17,01,32,16.90
2010,08,17,01,33,16.80
2010,08,17,01,34,16.80
2010,08,17,01,35,16.80
2010,08,17,01,36,16.80
2010,08,17,01,37,16.80
2010,08,17,01,38,16.70
2010,08,17,01,39,16.70
2010,08,17,01,40,16.70
2010,08,17,01,41,16.70
2010,08,17,01,42,16.70
2010,08,17,01,43,16.70
2010,08,17,01,44,16.70
2010,08,17,01,45,16.60
2010,08,17,01,46,16.60
2010,08,17,01,47,16.60
2010,08,17,01,48,16.60
2010,08,17,01,49,16.60
2010,08,17,01,50,16.60
2010,08,17,01,51,16.50
2010,08,17,01,52,16.40
2010,08,17,01,53,16.40
2010,08,17,01,54,16.40
2010,08,17,01,55,16.40
2010,08,17,01,56,16.40
2010,08,17,01,57,16.40
2010,08,17,01,58,16.40
2010,08,17,01,59,16.40
2010,08,17,02,00,16.40
2010,08,17,02,01,16.40
2010,08,17,02,02,16.40
2010,08,17,02,03,16.40
2010,08,17,02,04,16.40
2010,08,17,02,05,16.40
2010,08,17,02,06,16.40
2010,08,17,02,07,16.40
2010,08,17,02,08,16.40
2010,08,17,02,09,16.40
2010,08,17,02,10,16.40
2010,08,17,02,11,16.40
2010,08,17,02,12,16.40
2010,08,17,02,13,16.40
2010,08,17,02,14,16.40
2010,08,17,02,15,16.40
2010,08,17,02,16,16.40
2010,08,17,02,17,16.40
2010,08,17,02,18,16.40
2010,08,17,02,19,16.40
2010,08,17,02,20,16.40
2010,08,17,02,21,16.30
2010,08,17,02,22,16.30
2010,08,17,02,23,16.30
2010,08,17,02,24,16.20
2010,08,17,02,25,16.20
2010,08,17,02,26,16.20
2010,08,17,02,27,16.20
2010,08,17,02,28,16.10
2010,08,17,02,29,16.10
2010,08,17,02,30,16.10
2010,08,17,02,31,16.10
2010,08,17,02,32,16.10
2010,08,17,02,33,16.10
2010,08,17,02,34,16.10
2010,08,17,02,35,16.10
2010,08,17,02,36,16.10
2010,08,17,02,37,16.10
2010,08,17,02,38,16.10
2010,08,17,02,39,16.10
2010,08,17,02,40,16.10
2010,08,17,02,41,16.10
2010,08,17,02,42,16.10
2010,08,17,02,43,16.10
2010,08,17,02,44,16.00
2010,08,17,02,45,15.90
2010,08,17,02,46,15.90
2010,08,17,02,47,15.80
2010,08,17,02,48,15.80
2010,08,17,02,49,15.70
2010,08,17,02,50,15.70
2010,08,17,02,51,15.60
2010,08,17,02,52,15.60
2010,08,17,02,53,15.60
2010,08,17,02,54,15.50
2010,08,17,02,55,15.50
2010,08,17,02,56,15.40
2010,08,17,02,57,15.40
2010,08,17,02,58,15.30
2010,08,17,02,59,15.30
2010,08,17,03,00,15.20
2010,08,17,03,01,15.10
2010,08,17,03,02,15.10
2010,08,17,03,03,15.00
2010,08,17,03,04,15.00
2010,08,17,03,05,15.00
2010,08,17,03,06,14.90
2010,08,17,03,07,14.90
2010,08,17,03,08,14.90
2010,08,17,03,09,14.80
2010,08,17,03,10,14.80
2010,08,17,03,11,14.80
2010,08,17,03,12,14.70
2010,08,17,03,13,14.70
2010,08,17,03,14,14.60
2010,08,17,03,15,14.50
2010,08,17,03,16,14.50
2010,08,17,03,17,14.40
2010,08,17,03,18,14.40
2010,08,17,03,19,14.40
2010,08,17,03,20,14.40
2010,08,17,03,21,14.30
2010,08,17,03,22,14.30
2010,08,17,03,23,14.30
2010,08,17,03,24,14.30
2010,08,17,03,25,14.20
2010,08,17,03,26,14.20
2010,08,17,03,27,14.20
2010,08,17,03,28,14.20
2010,08,17,03,29,14.20
2010,08,17,03,30,14.20
2010,08,17,03,31,14.20
2010,08,17,03,32,14.20
2010,08,17,03,33,14.20
2010,08,17,03,34,14.20
2010,08,17,03,35,14.20
2010,08,17,03,36,14.20
2010,08,17,03,37,14.20
2010,08,17,03,38,14.20
2010,08,17,03,39,14.20
2010,08,17,03,40,14.20
2010,08,17,03,41,14.20
2010,08,17,03,42,14.10
2010,08,17,03,43,14.10
2010,08,17,03,44,14.10
2010,08,17,03,45,14.00
2010,08,17,03,46,14.00
2010,08,17,03,47,14.00
2010,08,17,03,48,14.00
2010,08,17,03,49,14.00
2010,08,17,03,50,14.00
2010,08,17,03,51,14.00
2010,08,17,03,52,14.00
2010,08,17,03,53,14.00
2010,08,17,03,54,14.00
2010,08,17,03,55,14.00
2010,08,17,03,56,14.00
2010,08,17,03,57,14.00
2010,08,17,03,58,14.00
2010,08,17,03,59,14.00
2010,08,17,04,00,14.00
2010,08,17,04,01,14.00
2010,08,17,04,02,14.00
2010,08,17,04,03,14.00
2010,08,17,04,04,14.00
2010,08,17,04,05,14.00
2010,08,17,04,06,14.00
2010,08,17,04,07,14.00
2010,08,17,04,08,14.00
2010,08,17,04,09,14.00
2010,08,17,04,10,14.00
2010,08,17,04,11,14.00
2010,08,17,04,12,14.00
2010,08,17,04,13,14.10
2010,08,17,04,14,14.10
2010,08,17,04,15,14.10
2010,08,17,04,16,14.10
2010,08,17,04,17,14.10
2010,08,17,04,18,14.10
2010,08,17,04,19,14.10
2010,08,17,04,20,14.10
2010,08,17,04,21,14.10
2010,08,17,04,22,14.10
2010,08,17,04,23,14.10
2010,08,17,04,24,14.10
2010,08,17,04,25,14.10
2010,08,17,04,26,14.10
2010,08,17,04,27,14.10
2010,08,17,04,28,14.10
2010,08,17,04,29,14.10
2010,08,17,04,30,14.10
2010,08,17,04,31,14.10
2010,08,17,04,32,14.10
2010,08,17,04,33,14.10
2010,08,17,04,34,14.00
2010,08,17,04,35,14.00
2010,08,17,04,36,14.00
2010,08,17,04,37,14.00
2010,08,17,04,38,14.00
2010,08,17,04,39,14.00
2010,08,17,04,40,14.00
2010,08,17,04,41,14.00
2010,08,17,04,42,14.00
2010,08,17,04,43,14.00
2010,08,17,04,44,14.00
2010,08,17,04,45,14.00
2010,08,17,04,46,14.00
2010,08,17,04,47,14.00
2010,08,17,04,48,14.00
2010,08,17,04,49,14.00
2010,08,17,04,50,14.00
2010,08,17,04,51,14.00
2010,08,17,04,52,14.00
2010,08,17,04,53,14.00
2010,08,17,04,54,14.00
2010,08,17,04,55,14.00
2010,08,17,04,56,14.00
2010,08,17,04,57,14.00
2010,08,17,04,58,14.00
2010,08,17,04,59,13.90
2010,08,17,05,00,13.90
2010,08,17,05,01,13.90
2010,08,17,05,02,13.90
2010,08,17,05,03,13.80
2010,08,17,05,04,13.80
2010,08,17,05,05,13.80
2010,08,17,05,06,13.70
2010,08,17,05,07,13.70
2010,08,17,05,08,13.70
2010,08,17,05,09,13.70
2010,08,17,05,10,13.70
2010,08,17,05,11,13.70
2010,08,17,05,12,13.70
2010,08,17,05,13,13.70
2010,08,17,05,14,13.70
2010,08,17,05,15,13.70
2010,08,17,05,16,13.70
2010,08,17,05,17,13.70
2010,08,17,05,18,13.70
2010,08,17,05,19,13.70
2010,08,17,05,20,13.70
2010,08,17,05,21,13.70
2010,08,17,05,22,13.70
2010,08,17,05,23,13.70
2010,08,17,05,24,13.70
2010,08,17,05,25,13.70
2010,08,17,05,26,13.70
2010,08,17,05,27,13.70
2010,08,17,05,28,13.80
2010,08,17,05,29,13.80
2010,08,17,05,30,13.80
2010,08,17,05,31,13.80
2010,08,17,05,32,13.80
2010,08,17,05,33,13.80
2010,08,17,05,34,13.80
2010,08,17,05,35,13.80
2010,08,17,05,36,13.70
2010,08,17,05,37,13.70
2010,08,17,05,38,13.70
2010,08,17,05,39,13.70
2010,08,17,05,40,13.60
2010,08,17,05,41,13.60
2010,08,17,05,42,13.50
2010,08,17,05,43,13.50
2010,08,17,05,44,13.40
2010,08,17,05,45,13.40
2010,08,17,05,46,13.30
2010,08,17,05,47,13.30
2010,08,17,05,48,13.30
2010,08,17,05,49,13.30
2010,08,17,05,50,13.20
2010,08,17,05,51,13.20
2010,08,17,05,52,13.20
2010,08,17,05,53,13.20
2010,08,17,05,54,13.20
2010,08,17,05,55,13.20
2010,08,17,05,56,13.20
2010,08,17,05,57,13.20
2010,08,17,05,58,13.20
2010,08,17,05,59,13.30
2010,08,17,06,00,13.30
2010,08,17,06,01,13.30
2010,08,17,06,02,13.30
2010,08,17,06,03,13.30
2010,08,17,06,04,13.30
2010,08,17,06,05,13.30
2010,08,17,06,06,13.20
2010,08,17,06,07,13.20
2010,08,17,06,08,13.20
2010,08,17,06,09,13.20
2010,08,17,06,10,13.10
2010,08,17,06,11,13.10
2010,08,17,06,12,13.10
2010,08,17,06,13,13.10
2010,08,17,06,14,13.10
2010,08,17,06,15,13.10
2010,08,17,06,16,13.10
2010,08,17,06,17,13.10
2010,08,17,06,18,13.10
2010,08,17,06,19,13.10
2010,08,17,06,20,13.10
2010,08,17,06,21,13.00
2010,08,17,06,22,13.00
2010,08,17,06,23,13.00
2010,08,17,06,24,13.00
2010,08,17,06,25,13.00
2010,08,17,06,26,13.10
2010,08,17,06,27,13.10
2010,08,17,06,28,13.10
2010,08,17,06,29,13.10
2010,08,17,06,30,13.10
2010,08,17,06,31,13.10
2010,08,17,06,32,13.10
2010,08,17,06,33,13.10
2010,08,17,06,34,13.10
2010,08,17,06,35,13.10
2010,08,17,06,36,13.10
2010,08,17,06,37,13.10
2010,08,17,06,38,13.00
2010,08,17,06,39,13.10
2010,08,17,06,40,13.10
2010,08,17,06,41,13.10
2010,08,17,06,42,13.10
2010,08,17,06,43,13.10
2010,08,17,06,44,13.10
2010,08,17,06,45,13.10
2010,08,17,06,46,13.20
2010,08,17,06,47,13.20
2010,08,17,06,48,13.20
2010,08,17,06,49,13.20
2010,08,17,06,50,13.30
2010,08,17,06,51,13.30
2010,08,17,06,52,13.30
2010,08,17,06,53,13.40
2010,08,17,06,54,13.50
2010,08,17,06,55,13.50
2010,08,17,06,56,13.50
2010,08,17,06,57,13.60
2010,08,17,06,58,13.60
2010,08,17,06,59,13.70
2010,08,17,07,00,13.70
2010,08,17,07,01,13.70
2010,08,17,07,02,13.70
2010,08,17,07,03,13.70
2010,08,17,07,04,13.70
2010,08,17,07,05,13.70
2010,08,17,07,06,13.70
2010,08,17,07,07,13.70
2010,08,17,07,08,13.70
2010,08,17,07,09,13.70
2010,08,17,07,10,13.80
2010,08,17,07,11,13.90
2010,08,17,07,12,13.90
2010,08,17,07,13,14.00
2010,08,17,07,14,14.00
2010,08,17,07,15,14.00
2010,08,17,07,16,14.00
2010,08,17,07,17,14.00
2010,08,17,07,18,14.00
2010,08,17,07,19,14.00
2010,08,17,07,20,14.00
2010,08,17,07,21,14.00
2010,08,17,07,22,14.10
2010,08,17,07,23,14.20
2010,08,17,07,24,14.20
2010,08,17,07,25,14.20
2010,08,17,07,26,14.20
2010,08,17,07,27,14.30
2010,08,17,07,28,14.30
2010,08,17,07,29,14.40
2010,08,17,07,30,14.40
2010,08,17,07,31,14.40
2010,08,17,07,32,14.40
2010,08,17,07,33,14.50
2010,08,17,07,34,14.50
2010,08,17,07,35,14.50
2010,08,17,07,36,14.60
2010,08,17,07,37,14.60
2010,08,17,07,38,14.60
2010,08,17,07,39,14.60
2010,08,17,07,40,14.60
2010,08,17,07,41,14.70
2010,08,17,07,42,14.70
2010,08,17,07,43,14.80
2010,08,17,07,44,14.80
2010,08,17,07,45,14.80
2010,08,17,07,46,14.80
2010,08,17,07,47,14.90
2010,08,17,07,48,14.90
2010,08,17,07,49,15.00
2010,08,17,07,50,15.00
2010,08,17,07,51,15.10
2010,08,17,07,52,15.20
2010,08,17,07,53,15.30
2010,08,17,07,54,15.40
2010,08,17,07,55,15.50
2010,08,17,07,56,15.60
2010,08,17,07,57,15.70
2010,08,17,07,58,15.90
2010,08,17,07,59,16.00
2010,08,17,08,00,16.10
2010,08,17,08,01,16.20
2010,08,17,08,02,16.30
2010,08,17,08,03,16.50
2010,08,17,08,04,16.60
2010,08,17,08,05,16.70
2010,08,17,08,06,16.70
2010,08,17,08,07,16.80
2010,08,17,08,08,16.80
2010,08,17,08,09,16.90
2010,08,17,08,10,17.00
2010,08,17,08,11,17.00
2010,08,17,08,12,17.00
2010,08,17,08,13,17.10
2010,08,17,08,14,17.20
2010,08,17,08,15,17.20
2010,08,17,08,16,17.10
2010,08,17,08,17,17.00
2010,08,17,08,18,17.00
2010,08,17,08,19,17.00
2010,08,17,08,20,16.90
2010,08,17,08,21,17.00
2010,08,17,08,22,17.00
2010,08,17,08,23,17.10
2010,08,17,08,24,17.10
2010,08,17,08,25,17.10
2010,08,17,08,26,17.10
2010,08,17,08,27,17.10
2010,08,17,08,28,17.10
2010,08,17,08,29,17.10
2010,08,17,08,30,17.10
2010,08,17,08,31,17.20
2010,08,17,08,32,17.20
2010,08,17,08,33,17.30
2010,08,17,08,34,17.40
2010,08,17,08,35,17.40
2010,08,17,08,36,17.50
2010,08,17,08,37,17.50
2010,08,17,08,38,17.60
2010,08,17,08,39,17.60
2010,08,17,08,40,17.70
2010,08,17,08,41,17.80
2010,08,17,08,42,17.90
2010,08,17,08,43,17.90
2010,08,17,08,44,17.90
2010,08,17,08,45,18.00
2010,08,17,08,46,18.10
2010,08,17,08,47,18.20
2010,08,17,08,48,18.20
2010,08,17,08,49,18.30
2010,08,17,08,50,18.40
2010,08,17,08,51,18.50
2010,08,17,08,52,18.60
2010,08,17,08,53,18.60
2010,08,17,08,54,18.70
2010,08,17,08,55,18.70
2010,08,17,08,56,18.80
2010,08,17,08,57,18.90
2010,08,17,08,58,19.00
2010,08,17,08,59,19.10
2010,08,17,09,00,19.10
2010,08,17,09,01,19.20
2010,08,17,09,02,19.30
2010,08,17,09,03,19.40
2010,08,17,09,04,19.40
2010,08,17,09,05,19.50
2010,08,17,09,06,19.50
2010,08,17,09,07,19.60
2010,08,17,09,08,19.60
2010,08,17,09,09,19.70
2010,08,17,09,10,19.80
2010,08,17,09,11,19.90
2010,08,17,09,12,19.90
2010,08,17,09,13,19.90
2010,08,17,09,14,19.90
2010,08,17,09,15,19.90
2010,08,17,09,16,19.90
2010,08,17,09,17,19.90
2010,08,17,09,18,20.00
2010,08,17,09,19,20.10
2010,08,17,09,20,20.10
2010,08,17,09,21,20.20
2010,08,17,09,22,20.20
2010,08,17,09,23,20.20
2010,08,17,09,24,20.20
2010,08,17,09,25,20.20
2010,08,17,09,26,20.20
2010,08,17,09,27,20.20
2010,08,17,09,28,20.30
2010,08,17,09,29,20.40
2010,08,17,09,30,20.50
2010,08,17,09,31,20.60
2010,08,17,09,32,20.70
2010,08,17,09,33,20.90
2010,08,17,09,34,21.00
2010,08,17,09,35,21.10
2010,08,17,09,36,21.20
2010,08,17,09,37,21.20
2010,08,17,09,38,21.20
2010,08,17,09,39,21.20
2010,08,17,09,40,21.20
2010,08,17,09,41,21.20
2010,08,17,09,42,21.30
2010,08,17,09,43,21.30
2010,08,17,09,44,21.40
2010,08,17,09,45,21.60
2010,08,17,09,46,21.70
2010,08,17,09,47,21.70
2010,08,17,09,48,21.70
2010,08,17,09,49,21.60
2010,08,17,09,50,21.70
2010,08,17,09,51,21.70
2010,08,17,09,52,21.70
2010,08,17,09,53,21.80
2010,08,17,09,54,21.80
2010,08,17,09,55,21.70
2010,08,17,09,56,21.50
2010,08,17,09,57,21.30
2010,08,17,09,58,21.10
2010,08,17,09,59,20.90
2010,08,17,10,00,20.80
2010,08,17,10,01,20.70
2010,08,17,10,02,20.60
2010,08,17,10,03,20.50
2010,08,17,10,04,20.50
2010,08,17,10,05,20.40
2010,08,17,10,06,20.30
2010,08,17,10,07,20.30
2010,08,17,10,08,20.10
2010,08,17,10,09,20.00
2010,08,17,10,10,19.90
2010,08,17,10,11,19.80
2010,08,17,10,12,19.70
2010,08,17,10,13,19.50
2010,08,17,10,14,19.30
2010,08,17,10,15,19.20
2010,08,17,10,16,19.10
2010,08,17,10,17,19.10
2010,08,17,10,18,19.10
2010,08,17,10,19,19.00
2010,08,17,10,20,18.90
2010,08,17,10,21,18.70
2010,08,17,10,22,18.70
2010,08,17,10,23,18.80
2010,08,17,10,24,18.90
2010,08,17,10,25,18.90
2010,08,17,10,26,18.90
2010,08,17,10,27,18.90
2010,08,17,10,28,18.90
2010,08,17,10,29,18.90
2010,08,17,10,30,18.70
2010,08,17,10,31,18.60
2010,08,17,10,32,18.40
2010,08,17,10,33,18.30
2010,08,17,10,34,18.30
2010,08,17,10,35,18.30
2010,08,17,10,36,18.30
2010,08,17,10,37,18.50
2010,08,17,10,38,18.50
2010,08,17,10,39,18.50
2010,08,17,10,40,18.60
2010,08,17,10,41,18.50
2010,08,17,10,42,18.60
2010,08,17,10,43,18.60
2010,08,17,10,44,18.70
2010,08,17,10,45,18.80
2010,08,17,10,46,18.90
2010,08,17,10,47,18.90
2010,08,17,10,48,19.00
2010,08,17,10,49,19.10
2010,08,17,10,50,19.10
2010,08,17,10,51,19.10
2010,08,17,10,52,19.10
2010,08,17,10,53,19.10
2010,08,17,10,54,19.10
2010,08,17,10,55,19.10
2010,08,17,10,56,19.10
2010,08,17,10,57,19.10
2010,08,17,10,58,19.10
2010,08,17,10,59,19.10
2010,08,17,11,00,19.20
2010,08,17,11,01,19.20
2010,08,17,11,02,19.30
2010,08,17,11,03,19.30
2010,08,17,11,04,19.30
2010,08,17,11,05,19.30
2010,08,17,11,06,19.30
2010,08,17,11,07,19.40
2010,08,17,11,08,19.50
2010,08,17,11,09,19.60
2010,08,17,11,10,19.60
2010,08,17,11,11,19.60
2010,08,17,11,12,19.60
2010,08,17,11,13,19.60
2010,08,17,11,14,19.60
2010,08,17,11,15,19.60
2010,08,17,11,16,19.70
2010,08,17,11,17,19.70
2010,08,17,11,18,19.70
2010,08,17,11,19,19.70
2010,08,17,11,20,19.70
2010,08,17,11,21,19.70
2010,08,17,11,22,19.80
2010,08,17,11,23,19.90
2010,08,17,11,24,19.90
2010,08,17,11,25,19.90
2010,08,17,11,26,19.90
2010,08,17,11,27,19.90
2010,08,17,11,28,19.70
2010,08,17,11,29,19.70
2010,08,17,11,30,19.70
2010,08,17,11,31,19.80
2010,08,17,11,32,19.90
2010,08,17,11,33,20.00
2010,08,17,11,34,20.10
2010,08,17,11,35,20.20
2010,08,17,11,36,20.40
2010,08,17,11,37,20.50
2010,08,17,11,38,20.60
2010,08,17,11,39,20.60
2010,08,17,11,40,20.60
2010,08,17,11,41,20.70
2010,08,17,11,42,20.70
2010,08,17,11,43,20.80
2010,08,17,11,44,20.90
2010,08,17,11,45,21.00
2010,08,17,11,46,21.10
2010,08,17,11,47,21.10
2010,08,17,11,48,21.10
2010,08,17,11,49,21.10
2010,08,17,11,50,21.00
2010,08,17,11,51,21.00
2010,08,17,11,52,21.10
2010,08,17,11,53,21.10
2010,08,17,11,54,21.30
2010,08,17,11,55,21.30
2010,08,17,11,56,21.30
2010,08,17,11,57,21.30
2010,08,17,11,58,21.30
2010,08,17,11,59,21.30
2010,08,17,12,00,21.30
2010,08,17,12,01,21.30
2010,08,17,12,02,21.40
2010,08,17,12,03,21.50
2010,08,17,12,04,21.60
2010,08,17,12,05,21.60
2010,08,17,12,06,21.60
2010,08,17,12,07,21.70
2010,08,17,12,08,21.70
2010,08,17,12,09,21.60
2010,08,17,12,10,21.50
2010,08,17,12,11,21.40
2010,08,17,12,12,21.30
2010,08,17,12,13,21.30
2010,08,17,12,14,21.10
2010,08,17,12,15,21.00
2010,08,17,12,16,21.00
2010,08,17,12,17,21.00
2010,08,17,12,18,21.10
2010,08,17,12,19,21.20
2010,08,17,12,20,21.30
2010,08,17,12,21,21.30
2010,08,17,12,22,21.30
2010,08,17,12,23,21.30
2010,08,17,12,24,21.30
2010,08,17,12,25,21.40
2010,08,17,12,26,21.60
2010,08,17,12,27,21.60
2010,08,17,12,28,21.60
2010,08,17,12,29,21.60
2010,08,17,12,30,21.60
2010,08,17,12,31,21.60
2010,08,17,12,32,21.60
2010,08,17,12,33,21.70
2010,08,17,12,34,21.60
2010,08,17,12,35,21.50
2010,08,17,12,36,21.30
2010,08,17,12,37,21.40
2010,08,17,12,38,21.50
2010,08,17,12,39,21.60
2010,08,17,12,40,21.50
2010,08,17,12,41,21.40
2010,08,17,12,42,21.30
2010,08,17,12,43,21.30
2010,08,17,12,44,21.30
2010,08,17,12,45,21.30
2010,08,17,12,46,21.30
2010,08,17,12,47,21.30
2010,08,17,12,48,21.30
2010,08,17,12,49,21.20
2010,08,17,12,50,21.10
2010,08,17,12,51,21.10
2010,08,17,12,52,21.10
2010,08,17,12,53,21.10
2010,08,17,12,54,21.10
2010,08,17,12,55,21.10
2010,08,17,12,56,21.10
2010,08,17,12,57,21.20
2010,08,17,12,58,21.30
2010,08,17,12,59,21.30
2010,08,17,13,00,21.30
2010,08,17,13,01,21.30
2010,08,17,13,02,21.40
2010,08,17,13,03,21.40
2010,08,17,13,04,21.50
2010,08,17,13,05,21.60
2010,08,17,13,06,21.60
2010,08,17,13,07,21.60
2010,08,17,13,08,21.60
2010,08,17,13,09,21.60
2010,08,17,13,10,21.50
2010,08,17,13,11,21.40
2010,08,17,13,12,21.40
2010,08,17,13,13,21.50
2010,08,17,13,14,21.60
2010,08,17,13,15,21.60
2010,08,17,13,16,21.60
2010,08,17,13,17,21.60
2010,08,17,13,18,21.50
2010,08,17,13,19,21.60
2010,08,17,13,20,21.60
2010,08,17,13,21,21.60
2010,08,17,13,22,21.60
2010,08,17,13,23,21.60
2010,08,17,13,24,21.60
2010,08,17,13,25,21.70
2010,08,17,13,26,21.80
2010,08,17,13,27,21.90
2010,08,17,13,28,21.80
2010,08,17,13,29,21.90
2010,08,17,13,30,22.00
2010,08,17,13,31,22.00
2010,08,17,13,32,22.00
2010,08,17,13,33,22.10
2010,08,17,13,34,22.20
2010,08,17,13,35,22.20
2010,08,17,13,36,22.30
2010,08,17,13,37,22.30
2010,08,17,13,38,22.40
2010,08,17,13,39,22.30
2010,08,17,13,40,22.30
2010,08,17,13,41,22.20
2010,08,17,13,42,22.20
2010,08,17,13,43,22.30
2010,08,17,13,44,22.40
2010,08,17,13,45,22.50
2010,08,17,13,46,22.60
2010,08,17,13,47,22.70
2010,08,17,13,48,22.70
2010,08,17,13,49,22.60
2010,08,17,13,50,22.60
2010,08,17,13,51,22.70
2010,08,17,13,52,22.70
2010,08,17,13,53,22.80
2010,08,17,13,54,22.80
2010,08,17,13,55,22.90
2010,08,17,13,56,22.90
2010,08,17,13,57,23.00
2010,08,17,13,58,23.10
2010,08,17,13,59,23.10
2010,08,17,14,00,23.00
2010,08,17,14,01,22.90
2010,08,17,14,02,22.90
2010,08,17,14,03,22.90
2010,08,17,14,04,22.90
2010,08,17,14,05,22.80
2010,08,17,14,06,22.80
2010,08,17,14,07,22.80
2010,08,17,14,08,22.70
2010,08,17,14,09,22.70
2010,08,17,14,10,22.70
2010,08,17,14,11,22.70
2010,08,17,14,12,22.60
2010,08,17,14,13,22.50
2010,08,17,14,14,22.50
2010,08,17,14,15,22.50
2010,08,17,14,16,22.50
2010,08,17,14,17,22.50
2010,08,17,14,18,22.50
2010,08,17,14,19,22.50
2010,08,17,14,20,22.50
2010,08,17,14,21,22.60
2010,08,17,14,22,22.60
2010,08,17,14,23,22.80
2010,08,17,14,24,22.90
2010,08,17,14,25,22.90
2010,08,17,14,26,23.00
2010,08,17,14,27,23.10
2010,08,17,14,28,23.20
2010,08,17,14,29,23.40
2010,08,17,14,30,23.40
2010,08,17,14,31,23.60
2010,08,17,14,32,23.60
2010,08,17,14,33,23.60
2010,08,17,14,34,23.70
2010,08,17,14,35,23.70
2010,08,17,14,36,23.80
2010,08,17,14,37,24.00
2010,08,17,14,38,24.10
2010,08,17,14,39,24.30
2010,08,17,14,40,24.40
2010,08,17,14,41,24.50
2010,08,17,14,42,24.60
2010,08,17,14,43,24.60
2010,08,17,14,44,24.50
2010,08,17,14,45,24.40
2010,08,17,14,46,24.30
2010,08,17,14,47,24.10
2010,08,17,14,48,24.10
2010,08,17,14,49,24.00
2010,08,17,14,50,23.80
2010,08,17,14,51,23.80
2010,08,17,14,52,23.80
2010,08,17,14,53,23.80
2010,08,17,14,54,23.90
2010,08,17,14,55,24.00
2010,08,17,14,56,24.10
2010,08,17,14,57,24.10
2010,08,17,14,58,24.10
2010,08,17,14,59,24.20
2010,08,17,15,00,24.30
2010,08,17,15,01,24.20
2010,08,17,15,02,24.20
2010,08,17,15,03,24.20
2010,08,17,15,04,24.20
2010,08,17,15,05,24.10
2010,08,17,15,06,24.10
2010,08,17,15,07,24.00
2010,08,17,15,08,23.90
2010,08,17,15,09,24.10
2010,08,17,15,10,24.10
2010,08,17,15,11,24.10
2010,08,17,15,12,24.10
2010,08,17,15,13,24.10
2010,08,17,15,14,24.10
2010,08,17,15,15,24.10
2010,08,17,15,16,24.10
2010,08,17,15,17,24.10
2010,08,17,15,18,24.30
2010,08,17,15,19,24.40
2010,08,17,15,20,24.50
2010,08,17,15,21,24.60
2010,08,17,15,22,24.60
2010,08,17,15,23,24.70
2010,08,17,15,24,24.80
2010,08,17,15,25,24.90
2010,08,17,15,26,24.90
2010,08,17,15,27,24.90
2010,08,17,15,28,24.90
2010,08,17,15,29,24.80
2010,08,17,15,30,24.70
2010,08,17,15,31,24.60
2010,08,17,15,32,24.50
2010,08,17,15,33,24.40
2010,08,17,15,34,24.20
2010,08,17,15,35,24.10
2010,08,17,15,36,24.00
2010,08,17,15,37,23.90
2010,08,17,15,38,24.00
2010,08,17,15,39,24.10
2010,08,17,15,40,24.10
2010,08,17,15,41,24.10
2010,08,17,15,42,24.10
2010,08,17,15,43,24.10
2010,08,17,15,44,24.10
2010,08,17,15,45,24.10
2010,08,17,15,46,24.10
2010,08,17,15,47,24.10
2010,08,17,15,48,24.20
2010,08,17,15,49,24.10
2010,08,17,15,50,24.10
2010,08,17,15,51,24.10
2010,08,17,15,52,24.10
2010,08,17,15,53,24.10
2010,08,17,15,54,24.10
2010,08,17,15,55,24.20
2010,08,17,15,56,24.20
2010,08,17,15,57,24.20
2010,08,17,15,58,24.10
2010,08,17,15,59,24.10
2010,08,17,16,00,23.90
2010,08,17,16,01,23.80
2010,08,17,16,02,23.70
2010,08,17,16,03,23.60
2010,08,17,16,04,23.60
2010,08,17,16,05,23.50
2010,08,17,16,06,23.40
2010,08,17,16,07,23.30
2010,08,17,16,08,23.30
2010,08,17,16,09,23.20
2010,08,17,16,10,23.10
2010,08,17,16,11,23.00
2010,08,17,16,12,22.90
2010,08,17,16,13,22.80
2010,08,17,16,14,22.70
2010,08,17,16,15,22.70
2010,08,17,16,16,22.70
2010,08,17,16,17,22.80
2010,08,17,16,18,22.80
2010,08,17,16,19,22.70
2010,08,17,16,20,22.60
2010,08,17,16,21,22.50
2010,08,17,16,22,22.50
2010,08,17,16,23,22.30
2010,08,17,16,24,22.20
2010,08,17,16,25,22.00
2010,08,17,16,26,21.90
2010,08,17,16,27,21.90
2010,08,17,16,28,21.80
2010,08,17,16,29,21.70
2010,08,17,16,30,21.60
2010,08,17,16,31,21.60
2010,08,17,16,32,21.50
2010,08,17,16,33,21.30
2010,08,17,16,34,21.30
2010,08,17,16,35,21.20
2010,08,17,16,36,21.10
2010,08,17,16,37,21.10
2010,08,17,16,38,21.10
2010,08,17,16,39,21.10
2010,08,17,16,40,21.10
2010,08,17,16,41,21.10
2010,08,17,16,42,21.00
2010,08,17,16,43,20.90
2010,08,17,16,44,20.90
2010,08,17,16,45,20.90
2010,08,17,16,46,21.10
2010,08,17,16,47,21.20
2010,08,17,16,48,21.30
2010,08,17,16,49,21.20
2010,08,17,16,50,20.90
2010,08,17,16,51,20.70
2010,08,17,16,52,20.60
2010,08,17,16,53,20.50
2010,08,17,16,54,20.40
2010,08,17,16,55,20.30
2010,08,17,16,56,20.30
2010,08,17,16,57,20.20
2010,08,17,16,58,20.20
2010,08,17,16,59,20.30
2010,08,17,17,00,20.50
2010,08,17,17,01,20.50
2010,08,17,17,02,20.60
2010,08,17,17,03,20.50
2010,08,17,17,04,20.50
2010,08,17,17,05,20.40
2010,08,17,17,06,20.40
2010,08,17,17,07,20.40
2010,08,17,17,08,20.40
2010,08,17,17,09,20.40
2010,08,17,17,10,20.40
2010,08,17,17,11,20.30
2010,08,17,17,12,20.20
2010,08,17,17,13,20.20
2010,08,17,17,14,20.20
2010,08,17,17,15,20.20
2010,08,17,17,16,20.30
2010,08,17,17,17,20.50
2010,08,17,17,18,20.60
2010,08,17,17,19,20.60